User: anonymous   Login
Location: Bathurst
(33.4193°S, 149.5775°E)
Time: 15:10:56
(UTC+11:00)
Language:

Envisat - Orbit

View from above orbital plane
View from above orbital plane
View from above satellite
View from above satellite

Ground track
Ground track

The orbit data is extracted from the following two-line orbital elements,

1 27386U 02009A   21066.74228389  .00000042  00000-0  27234-4 0  9993
2 27386  98.1456  66.0123 0001301  92.7877  80.0974 14.38015387996455
Epoch (UTC): 07 March 2021 17:48:53
Eccentricity: 0.0001301
inclination: 98.1456°
perigee height: 764 km
apogee height: 766 km
right ascension of ascending node: 66.0123°
argument of perigee: 92.7877°
revolutions per day: 14.38015387
mean anomaly at epoch: 80.0974°
orbit number at epoch: 99645

The dashed part of the orbit path shows where the satellite is in the earth's shadow,  

DLR